Location: Newark
(43.0000°N, 1.6781°W)
Time: 17:31:30
(UTC+00:00)

SO-50 - Visible Passes

Search period start: 28 May 2024 00:00
Search period end: 07 June 2024 00:00
Orbit: 613 x 652 km, 64.6° (Epoch: 27 May)

Date Brightness Start Highest point End Pass type
(mag) Time Alt. Az. Time Alt. Az. Time Alt. Az.
28 May ? 02:58:18 10° SSE 03:01:16 17° ESE 03:04:13 10° ENE visible
29 May ? 03:18:24 10° S 03:22:37 38° ESE 03:26:48 10° NE visible
30 May ? 03:39:34 10° SSW 03:44:08 86° ESE 03:48:40 10° NE visible
31 May ? 02:23:18 14° SSE 02:25:53 22° ESE 02:29:25 10° ENE visible
01 Jun ? 02:44:30 21° S 02:47:17 50° ESE 02:51:39 10° NE visible
02 Jun ? 01:28:14 12° ESE 01:29:13 13° ESE 01:31:20 10° E visible
02 Jun ? 03:05:38 19° SW 03:08:51 73° NW 03:13:22 10° NNE visible
03 Jun ? 01:49:18 26° SE 01:50:30 29° ESE 01:54:25 10° NE visible
03 Jun ? 03:26:43 11° WSW 03:30:36 35° NW 03:34:46 10° NNE visible
04 Jun ? 02:10:20 38° S 02:11:56 67° ESE 02:16:25 10° NE visible
04 Jun ? 03:49:17 10° W 03:52:34 19° NW 03:55:51 10° N visible
05 Jun ? 00:53:54 17° ESE 00:53:54 17° ESE 00:56:45 10° ENE visible
05 Jun ? 02:31:18 27° WSW 02:33:34 56° NW 02:38:01 10° NNE visible
06 Jun ? 01:14:49 38° SE 01:15:04 38° ESE 01:19:17 10° NE visible
06 Jun ? 02:52:13 14° W 02:55:22 28° NW 02:59:17 10° NNE visible
